Lid_Strength_Index
4 4 4 4 4 4 4 3 3 3 3 2 2 3 2 2 2 3 2 3 3 3 3 2 2 3 10 14 13 9 5 6 8 8 10 10 11 13 16 14 14 14 13 12 12 12 13
3 3 4 4 4 4 4 3 3 3 3 2 3 3 3 3 2 2 2 3 3 3 2 2 2 5 13 16 10 9 9 9 9 9 10 9 10 10 12 13 14 13 13 13 12 13 13
3 3 3 4 4 3 3 3 3 3 3 3 3 2 2 2 2 2 3 3 3 2 2 3 3 10 13 14 10 9 9 10 9 9 11 9 8 11 11 14 11 12 15 16 14 14 14
2 3 3 3 3 3 3 2 2 3 2 3 3 2 2 2 2 3 3 3 3 3 3 3 5 13 15 10 9 9 9 10 9 8 9 8 8 10 12 12 14 17 17 19 15 14 13
2 2 2 2 3 2 2 2 3 2 2 3 3 3 2 2 3 3 3 3 3 4 4 6 11 15 17 8 11 10 10 11 10 10 10 8 10 13 13 17 19 17 20 19 17 14 14
1 1 2 2 3 2 2 2 2 3 2 3 3 3 3 2 3 3 4 4 5 7 9 10 11 16 14 14 11 10 10 10 11 12 12 13 15 16 17 18 21 19 19 18 19 16 15
1 1 1 2 2 2 2 2 2 3 3 3 3 3 3 3 4 3 8 13 14 14 12 15 15 15 14 11 11 11 10 11 12 14 17 15 18 19 18 16 16 17 18 18 16 14 16
1 1 1 1 1 2 2 2 2 3 3 3 3 3 3 4 4 5 9 12 12 13 16 14 13 13 12 12 14 12 10 14 15 17 16 18 19 16 15 15 16 16 17 18 16 14 15
1 1 1 1 1 2 2 2 3 3 3 3 4 3 4 5 5 10 11 11 8 10 17 16 14 13 13 12 15 14 12 14 16 18 17 19 18 15 16 16 16 16 17 17 17 15 13
0 1 1 1 1 1 2 2 2 2 3 4 4 4 5 5 10 11 12 9 9 11 20 18 17 14 13 13 16 12 11 13 16 18 18 18 16 16 17 16 15 18 15 15 15 15 19
0 0 1 1 1 2 2 2 2 3 3 4 4 4 5 7 12 13 11 9 10 13 24 18 17 12 13 15 15 15 12 14 17 17 18 20 18 17 17 16 14 16 14 14 14 15 15
-0 0 1 1 1 1 2 2 2 3 3 4 4 5 5 9 12 11 10 12 13 19 25 20 17 16 17 16 16 15 15 13 15 18 18 18 16 16 16 14 14 13 14 13 14 15 21
-0 0 0 0 1 1 2 2 2 3 3 4 4 6 8 9 13 10 11 14 20 22 19 22 19 17 17 18 17 17 17 18 20 24 24 20 19 17 15 17 14 13 15 24 25 25 24
-1 -1 0 0 1 1 1 2 2 3 3 4 5 8 9 10 11 11 14 18 24 26 26 18 18 18 19 18 18 19 18 20 18 21 24 25 24 18 15 16 16 14 15 24 29 26 21
-1 -1 -0 0 1 1 1 2 2 3 3 5 7 11 12 12 11 13 17 24 21 23 21 19 21 25 25 20 20 20 21 20 18 18 26 25 22 17 16 15 13 16 20 14 17 22 21
-0 -1 -1 -0 0 1 1 2 2 3 3 5 11 12 13 11 12 15 20 19 23 18 17 19 23 25 27 27 22 22 23 19 17 16 18 20 26 18 16 14 12 14 13 20 22 26 26
0 -0 -1 -1 -0 1 1 2 2 3 4 6 11 14 12 11 14 17 22 22 20 17 16 19 23 27 25 26 24 26 24 19 17 17 17 18 21 20 17 16 16 18 21 19 16 18 23
1 0 -1 -1 -0 0 1 1 2 3 5 7 12 16 11 12 19 26 22 20 16 17 16 17 19 21 23 24 27 24 22 20 16 17 21 16 20 24 20 16 15 15 18 19 24 22 19
1 1 -0 -1 -0 -0 0 1 2 3 5 10 14 14 11 13 21 22 20 17 16 16 17 17 18 18 20 24 25 24 20 17 16 17 19 18 25 29 23 19 17 17 16 15 21 20 21
1 1 0 -0 -1 -1 -0 1 2 4 5 9 13 17 15 15 16 17 19 19 18 16 16 16 17 17 20 23 20 24 20 17 16 16 13 14 21 26 25 21 20 20 18 17 22 23 20
2 2 1 1 -0 -1 -0 1 2 4 5 9 13 15 15 19 18 17 17 18 18 19 16 16 17 17 19 24 23 23 20 19 17 15 15 16 25 24 21 19 19 19 19 19 21 20 21
2 2 2 1 0 -0 -1 -0 1 3 4 9 14 15 15 17 16 17 16 19 18 18 17 17 19 17 18 21 20 23 21 21 20 18 17 17 25 20 24 19 18 20 18 18 18 19 18
3 2 2 2 1 0 -1 -1 1 3 4 10 11 12 13 15 16 17 18 17 17 17 16 16 16 17 18 18 18 19 18 18 18 19 20 19 22 27 29 21 22 24 18 16 18 17 18
3 3 3 2 1 0 -0 -0 -0 2 3 8 11 11 13 16 16 16 16 16 17 17 17 17 16 17 17 17 18 19 20 18 18 18 16 21 21 25 29 27 29 18 18 16 17 17 16
3 3 3 2 1 1 0 -0 -0 2 2 5 8 10 11 15 15 16 16 16 16 16 17 17 16 17 17 18 22 28 29 27 28 19 18 15 18 29 31 29 23 18 16 16 18 18 14
4 3 3 2 1 1 1 0 -0 1 1 3 6 6 8 13 15 14 16 15 17 17 18 18 16 17 18 20 27 29 28 33 32 28 17 16 16 27 32 34 30 20 16 15 14 20 15
4 4 3 2 1 1 0 0 -0 0 1 3 6 5 7 12 13 13 15 15 14 15 17 18 18 18 18 24 31 29 28 30 29 29 24 25 21 26 28 31 26 19 17 14 22 19 15
4 4 3 2 2 1 0 0 -0 0 1 2 7 4 4 11 14 12 13 15 15 15 17 17 17 18 24 25 26 28 30 29 29 25 24 25 25 29 29 29 28 18 16 17 16 15 16
3 4 3 3 2 1 0 0 -0 0 1 1 8 8 9 11 14 14 14 14 14 13 15 16 16 19 18 24 27 29 31 31 30 28 21 25 21 23 22 22 17 17 15 14 14 15 16